Location: Nied?wied?
(53.3665°N, 14.8184°E)
Time: 23:08:18
(UTC+00:00)

Spot 2 Rocket - Pass Details

Date: 03 March 2021
Orbit: 757 x 772 km, 98.5° (Epoch: 12 April)

Event Time Altitude Azimuth Distance (km) Brightness Sun altitude
Exits shadow 20:01:34 56° 354° (N) 922 4.0 -29.3°
Drops below altitude 10° 20:05:35 10° 346° (NNW) 2,330 6.5 -29.8°
Sets 20:07:54 0° 346° (NNW) 3,262 7.4 -30.1°
